Regional Weather Roundup
Issued by NWS

Home | Current Version | Previous Version | Graphics & Text | Print | Product List | Glossary On
Versions: 1 2 3 4 5 6 7 8 9 10 11 12 13 14 15 16 17 18 19 20 21 22 23 24 25 26 27 28 29 30 31 32 33 34 35 36 37 38 39 40 41 42 43 44 45 46 47 48 49 50
000
ASUS43 KFSD 021702
RWRSD

WEATHER ROUNDUP FOR SOUTH DAKOTA
NATIONAL WEATHER SERVICE SIOUX FALLS SD
1200 PM CDT MON MAY 02 2016

NOTE: "FAIR" INDICATES FEW OR NO CLOUDS BELOW 12,000 FEET WITH NO
SIGNIFICANT WEATHER AND/OR OBSTRUCTIONS TO VISIBILITY.


SDZ001>005-009-010-012>017-021800-
NORTHWEST AND NORTH CENTRAL SOUTH DAKOTA

CITY           SKY/WX    TMP DP  RH WIND       PRES   REMARKS
BUFFALO          N/A     63  31  30 NW23G32   30.01F
FAITH            N/A     63  33  32 NW18G29   30.05F
MOBRIDGE       RAIN      48  43  82 NW7       30.05R
$$

SDZ012>016-024>037-041>051-057-063-072>074-021800-
SOUTHWEST AND SOUTH CENTRAL SOUTH DAKOTA

CITY           SKY/WX    TMP DP  RH WIND       PRES   REMARKS
RAPID CTY ARPT MOSUNNY   60  33  36 NW10G21   30.10F
PIERRE         MOSUNNY   60  43  53 W7        30.04F
CUSTER         PTSUNNY   51  25  36 VRB7      30.14F
ELLSWORTH AFB  CLOUDY    61  32  33 NW12G23   30.09
PHILIP         MOSUNNY   64  38  38 NW12      30.08F
PINE RIDGE     PTSUNNY   54  35  48 W8        30.13F
WINNER         PTSUNNY   58  38  47 W6        30.10F
$$

SDZ004>011-016>023-039-040-021800-
NORTHEAST SOUTH DAKOTA

CITY           SKY/WX    TMP DP  RH WIND       PRES   REMARKS
ABERDEEN       CLOUDY    63  38  39 S10       30.04F
WATERTOWN      MOSUNNY   61  31  32 VRB7      30.06F
SISSETON         N/A     64  29  26 VRB3      30.03F
$$

SDZ017-020-022-023-036>040-048>070-021800-
SOUTHEAST SOUTH DAKOTA

CITY           SKY/WX    TMP DP  RH WIND       PRES   REMARKS
SIOUX FALLS    PTSUNNY   59  38  45 NW10      30.10F
HURON          MOSUNNY   61  39  44 MISG      30.07F
MITCHELL       PTSUNNY   61  42  49 CALM      30.10F
YANKTON        CLOUDY    57  39  51 NW8       30.12F
$$

ABBREVIATIONS USED IN REMARKS
   TC - TEMPERATURE IN CELSIUS
  WCI - WIND CHILL INDEX
   HX - HEAT INDEX
  VSB - VISIBILITY





USA.gov is the U.S. government's official web portal to all federal, state and local government web resources and services.